Location: Castillon
(43.0896°N, 0.2156°E)
Time: 19:16:26
(UTC+00:00)

ERS-1 Rocket - Pass Details

Date: 16 June 2021
Orbit: 752 x 758 km, 98.4° (Epoch: 31 July)

Event Time Altitude Azimuth Distance (km) Brightness Sun altitude
Exits shadow 21:24:38 22° 152° (SSE) 1,612 4.1 -14.5°
Maximum altitude 21:27:54 70° 73° (ENE) 811 3.0 -14.9°
Drops below altitude 10° 21:32:56 10° 351° (N) 2,298 6.5 -15.4°
Sets 21:35:14 0° 349° (N) 3,228 7.5 -15.7°
